Flag for San Marino Weather past 2 weeks in San Marino, San Marino

Now
66 °F

Broken clouds.


Feels Like: 66 °F
Forecast: 46 / 55 °F
Wind: 10 mph from West

Location: Rimini Airport

Current Time: May 26, 2015 at 12:53:50 PM

Latest Report: May 26, 2015 at 12:15 PM


Visibility: N/A

Pressure: 29.83 "Hg

Humidity: 83%

Dew point: 61 °F

Location of San MarinoLocation

Historic Weather in San Marino — Graph

°F

San Marino temperature yesterday

Maximum temperature yesterday: 73 °F (at 2:15 PM)
Minimum temperature yesterday: 57 °F (at 12:45 AM)
Average temperature yesterday: 66 °F

Past Weeks' High & Low Weather Summary

 TemperatureHumidityPressure
High84 °F (May 14, 4:45 PM)100% (May 13, 2:15 AM)30.27 "Hg (May 13, 2:15 AM)
Low54 °F (May 22, 7:45 AM)51% (May 14, 4:45 PM)29.65 "Hg (May 15, 6:45 AM)
Average67 °F85%29.91 "Hg
* Reported May 11 11:15 AM — May 26 11:45 AM, San Marino, Weather by CustomWeather, © 2015

Note: Actual official high and low records may vary slightly from our data, if they occured in-between our weather recording intervals... More about our weather records

Advertising

San Marino weather history for previous 24 hours

 ConditionsComfort  
Time TempWeatherWind HumidityBarometerVisibility
11:45 AM
Tue, May 26
66 °FBroken clouds.9 mph83%29.83 "HgN/A
11:15 AM66 °FBroken clouds.13 mph88%29.83 "HgN/A
10:45 AM66 °FBroken clouds.14 mph88%29.83 "HgN/A
10:15 AM68 °FScattered clouds.8 mph94%29.80 "HgN/A
9:45 AM68 °FPartly sunny.8 mph94%29.80 "HgN/A
9:15 AM66 °FPartly sunny.9 mph94%29.80 "HgN/A
8:45 AM66 °FPartly sunny.8 mph88%29.80 "HgN/A
8:15 AM64 °FScattered clouds.7 mph94%29.80 "HgN/A
7:45 AM63 °FPassing clouds.3 mph100%29.80 "HgN/A
7:15 AM61 °FPassing clouds.2 mph100%29.80 "HgN/A
6:45 AM59 °FPassing clouds.3 mph100%29.80 "HgN/A
6:15 AM59 °FPassing clouds.2 mph100%29.80 "HgN/A
5:45 AM59 °FPassing clouds.No wind100%29.80 "HgN/A
4:45 AM59 °FCool.2 mph100%29.80 "HgN/A
4:15 AM59 °FPassing clouds.No wind100%29.80 "HgN/A
3:45 AM59 °FClear.2 mph100%29.80 "Hg10 mi
3:15 AM61 °FClear.N/A100%29.80 "Hg10 mi
2:45 AM63 °FClear.2 mph100%29.80 "Hg10 mi
2:15 AM63 °FClear.No wind100%29.83 "Hg10 mi
1:15 AM63 °FClear.No wind100%29.83 "Hg10 mi
12:45 AM64 °FClear.No wind100%29.83 "Hg10 mi
12:15 AM64 °FClear.No wind100%29.83 "Hg10 mi
11:45 PM
Mon, May 25
64 °FClear.No wind100%29.83 "Hg10 mi
11:15 PM64 °FClear.1 mph100%29.83 "Hg10 mi
10:45 PM66 °FClear.2 mph100%29.83 "Hg10 mi
10:15 PM64 °FClear.3 mph100%29.83 "Hg10 mi
9:45 PM66 °FPassing clouds.5 mph94%29.83 "HgN/A
9:15 PM66 °FScattered clouds.6 mph94%29.83 "HgN/A
8:45 PM68 °FScattered clouds.6 mph88%29.83 "HgN/A
8:15 PM70 °FPartly sunny.8 mph88%29.83 "HgN/A
7:45 PM70 °FScattered clouds.9 mph88%29.83 "HgN/A
7:15 PM70 °FPartly sunny.9 mph88%29.83 "HgN/A
6:45 PM70 °FPartly sunny.10 mph83%29.83 "HgN/A
6:15 PM68 °FScattered clouds.10 mph88%29.83 "HgN/A
5:45 PM70 °FScattered clouds.7 mph78%29.83 "HgN/A
5:15 PM72 °FPassing clouds.9 mph73%29.86 "HgN/A
4:45 PM72 °FPassing clouds.8 mph78%29.86 "HgN/A
4:15 PM72 °FPassing clouds.8 mph78%29.86 "HgN/A
3:45 PM72 °FSunny.8 mph78%29.86 "Hg10 mi
3:15 PM73 °FSunny.7 mph69%29.89 "Hg10 mi
2:45 PM72 °FPassing clouds.8 mph73%29.89 "HgN/A
2:15 PM73 °FPassing clouds.7 mph69%29.89 "HgN/A
1:45 PM72 °FPassing clouds.6 mph69%29.89 "HgN/A
1:15 PM72 °FPassing clouds.6 mph73%29.89 "HgN/A
12:45 PM72 °FPassing clouds.8 mph73%29.89 "HgN/A
12:15 PM72 °FSunny.7 mph73%29.92 "Hg10 mi
Weather by CustomWeather, © 2015

See weather overviewHow to use our weather pages